Simultaneous Nadir Overpasses (SNOs) Predictions

Prediction of SNOs between GOES-14 and AQUA Satellite Orbit:

Table of predicted SNOs for the next 14.0 days since TLE Epoch: 3/20/2021
Index Date Time (GOES-14) GOES-14 Lat,Lon AQUA Lat,Lon Distance(km) Time Diff (sec)
1 03/20/2021 08:17:25 0.09,-104.42 -0.82,-100.24 475.52 80
2 03/20/2021 20:38:47 -0.10,-104.32 -0.35,-105.42 125.49 80
3 03/22/2021 20:23:56 -0.10,-104.31 0.28,-102.47 209.04 80
4 03/23/2021 08:45:12 0.11,-104.39 0.80,-107.63 368.75 80
5 03/25/2021 08:33:01 0.11,-104.38 0.16,-104.68 33.70 80
6 03/27/2021 08:23:29 0.11,-104.37 -0.42,-101.71 301.41 80
7 03/27/2021 20:44:53 -0.12,-104.30 -0.69,-106.90 296.09 80
8 03/29/2021 20:30:02 -0.12,-104.29 -0.05,-103.95 38.44 80
9 03/31/2021 20:17:51 -0.12,-104.28 0.60,-101.00 372.94 80
10 04/01/2021 08:39:06 0.12,-104.33 0.53,-106.15 208.03 80
